Temp
7 7 6 6 6 5 6 6 6 6 6 6 6 6 6 6 6 6 6 6 6 6 6 6 6 7 7 7 6 6 6 7 7 6 6 6 6 6 6 6 7 7 7 7 7 7 7 7 8 8 8 8 8 8 8 8 8 8 9 9 10 10 10 11 11 11 11 11 11
7 7 7 6 6 6 6 6 6 6 6 7 6 6 6 6 6 6 6 6 6 6 6 6 6 6 6 6 6 6 6 6 6 6 6 6 6 6 6 6 6 6 6 6 7 7 7 7 7 8 8 8 8 8 8 8 8 8 9 9 10 10 10 11 11 11 11 11 11
7 7 7 7 7 6 6 6 6 6 6 6 6 6 6 6 6 6 7 7 7 7 7 6 6 6 6 6 6 6 6 6 6 6 6 6 6 6 6 6 6 6 6 6 7 7 7 7 8 8 8 8 8 8 8 8 8 8 9 9 10 10 11 11 11 11 11 11 11
7 7 7 7 7 7 6 6 6 6 6 6 6 6 6 6 7 7 7 7 7 7 7 7 7 7 6 6 6 6 6 6 6 6 6 6 6 6 6 6 6 6 6 7 7 7 8 8 8 8 8 8 8 8 8 8 8 8 9 9 10 11 11 11 11 11 11 11 11
7 7 7 7 7 7 7 7 6 6 6 6 6 6 6 7 7 7 7 7 7 7 7 7 7 7 6 6 6 6 6 6 6 6 7 7 7 6 6 6 6 7 7 7 8 8 8 8 8 8 8 8 8 8 8 8 8 8 9 10 10 11 11 11 11 11 10 10 10
7 7 7 7 7 7 7 7 7 7 7 6 6 6 6 7 7 7 6 6 7 7 7 7 7 7 6 6 6 6 6 7 7 7 7 7 7 7 7 7 7 7 7 8 8 8 8 8 8 8 8 8 8 8 8 8 8 8 9 10 11 11 11 10 10 10 10 10 11
7 7 7 7 7 7 7 7 7 7 7 7 6 6 7 7 7 6 6 6 6 7 7 7 7 7 6 6 6 6 7 7 7 7 7 7 7 7 7 7 7 7 8 8 8 8 8 8 8 8 8 8 8 8 8 8 8 9 10 10 10 10 10 10 10 10 10 11 11
7 7 7 7 7 7 7 7 7 7 7 7 7 7 7 7 7 7 7 6 6 7 7 7 7 7 6 6 6 6 7 7 7 7 7 7 7 7 7 7 7 8 8 8 8 8 8 8 8 8 8 8 8 8 8 8 9 9 10 10 10 10 10 10 10 10 10 10 10
7 7 7 7 7 7 7 7 7 7 7 7 7 7 7 7 7 7 7 7 7 7 7 7 8 7 7 6 6 7 7 7 7 7 7 8 8 8 8 8 8 8 8 8 8 8 8 8 8 8 8 8 8 8 8 9 9 9 10 9 9 9 10 10 10 10 10 10 10
7 7 7 7 7 7 7 7 7 7 7 7 7 7 7 7 7 7 7 7 7 7 7 8 8 8 7 7 7 7 7 7 7 7 8 8 8 8 8 8 8 8 8 8 8 8 8 8 8 8 8 8 8 8 9 9 9 9 9 9 10 10 10 10 10 10 10 9 9
7 7 7 7 7 7 7 7 7 7 7 7 8 8 8 8 8 8 8 8 8 8 8 8 8 8 8 8 8 8 8 7 7 7 8 8 8 8 8 8 8 8 8 8 8 8 8 8 8 8 8 8 8 9 9 9 9 9 9 9 9 10 9 9 9 9 9 9 9
7 7 7 7 7 7 7 7 7 7 7 7 7 8 8 8 8 8 8 8 8 8 8 8 8 8 8 8 8 8 8 7 8 8 8 8 8 8 8 8 8 8 8 8 8 8 8 8 8 9 9 9 9 9 9 9 9 9 9 9 9 9 8 8 8 8 8 8 8
7 7 7 7 7 7 7 7 7 7 7 7 7 8 8 8 8 8 8 8 8 8 8 8 8 8 8 8 8 8 8 8 8 8 8 8 8 8 8 8 8 8 8 8 8 8 8 8 8 9 9 9 9 9 9 9 9 9 9 9 8 8 8 7 7 7 8 8 8
7 7 7 7 7 7 7 7 7 7 7 7 7 7 8 8 8 8 8 9 8 8 8 8 8 8 8 8 8 8 8 8 8 8 8 8 8 8 9 9 8 8 8 8 7 8 8 9 9 9 9 9 9 8 8 8 8 8 8 8 7 7 7 7 6 7 7 7 7
6 6 6 6 6 6 7 7 7 7 7 7 7 7 7 7 8 8 8 8 8 8 8 8 8 8 8 8 8 8 8 8 8 8 8 8 8 8 9 9 8 8 8 8 8 8 9 9 9 8 8 8 8 8 8 8 8 8 7 7 7 6 6 6 6 6 6 6 6
6 6 6 6 6 6 6 6 6 6 6 6 6 7 7 7 7 7 8 8 8 8 8 8 8 8 8 8 8 8 8 8 8 8 8 8 8 8 8 8 8 8 8 8 8 8 8 8 8 8 8 7 7 7 7 7 7 7 7 6 6 6 5 5 5 5 5 5 5
6 6 6 6 6 6 6 6 6 6 6 6 6 6 6 7 7 7 7 7 8 8 8 8 8 8 8 8 8 8 8 8 8 7 7 7 7 7 7 7 7 7 7 7 8 8 8 7 7 7 7 7 7 7 7 6 6 6 6 5 5 5 5 5 5 4 4 4 4
6 6 6 6 6 6 6 6 6 6 6 6 6 6 6 6 6 7 7 7 7 7 7 7 7 7 7 7 7 7 7 7 7 7 6 6 7 7 7 7 7 7 7 7 7 7 7 6 6 6 6 6 6 6 6 6 5 5 5 5 4 4 4 4 4 4 4 4 4
5 6 6 6 6 6 6 6 6 6 6 6 6 6 6 6 6 6 6 7 7 7 7 7 7 7 7 7 7 7 6 6 6 6 6 6 6 6 6 6 6 6 6 6 6 6 6 5 5 5 6 6 6 5 5 5 5 4 4 4 4 3 3 3 3 3 3 3 3
5 5 5 5 5 5 5 5 5 5 5 5 5 5 5 6 6 6 6 6 6 6 6 6 6 6 6 6 6 6 6 6 6 6 6 6 6 6 6 6 6 6 6 5 5 5 5 5 5 5 5 5 5 4 4 4 4 4 3 3 3 3 3 3 3 3 3 3 3
5 5 5 5 5 5 5 5 5 5 5 5 5 5 5 5 5 5 5 6 6 6 6 6 6 6 6 6 6 6 6 6 6 6 6 6 6 6 6 6 6 5 5 4 4 4 4 4 4 4 4 4 4 4 3 3 3 3 3 3 2 2 2 2 3 3 3 3 3
5 5 5 5 5 5 5 5 5 5 5 5 5 5 5 5 5 5 5 5 5 5 5 5 5 5 5 5 5 5 5 5 5 5 5 5 5 5 5 5 5 5 4 4 4 3 3 4 4 4 4 3 3 3 3 3 3 3 3 3 3 3 2 2 3 3 3 3 3
5 5 5 5 5 5 5 5 5 5 5 5 5 5 5 5 5 5 5 5 5 5 4 4 5 5 5 5 5 5 5 5 5 5 5 5 5 5 5 5 5 4 4 4 3 3 3 3 3 3 3 3 3 3 3 3 3 3 3 3 3 3 3 3 3 3 3 3 3
5 5 5 5 5 4 4 4 4 4 4 4 4 4 4 4 4 4 4 4 4 4 4 4 4 4 4 4 4 4 4 4 4 4 4 4 4 4 4 4 4 4 4 4 3 3 3 3 3 3 3 3 3 3 3 3 3 3 3 3 3 3 3 3 3 3 3 3 3
5 5 4 4 4 4 4 4 4 4 4 4 4 4 4 4 4 4 4 4 4 4 4 4 4 4 4 4 4 4 4 4 4 4 4 4 4 4 4 4 4 4 4 3 3 3 3 3 3 2 2 2 2 2 2 2 2 2 2 2 2 2 2 2 3 3 3 3 3
5 4 4 4 4 4 4 4 4 4 4 4 4 4 4 4 4 4 4 4 4 4 4 4 4 4 4 3 4 4 4 4 4 4 4 4 4 4 4 4 4 3 3 3 3 3 3 3 2 2 2 2 2 2 2 2 2 2 2 2 2 2 2 2 2 2 2 2 3
4 4 4 4 4 4 4 4 4 4 4 4 4 3 3 3 3 3 3 3 3 3 3 3 3 3 3 3 3 3 3 3 3 3 3 3 3 3 3 3 3 3 3 3 3 3 3 2 2 2 2 2 2 1 1 1 1 1 1 1 1 1 1 1 2 2 2 2 2
4 4 4 4 4 4 4 4 4 3 3 3 3 3 3 3 3 3 3 3 3 3 3 3 3 3 3 3 3 3 3 3 3 3 3 3 3 3 3 3 3 3 3 3 3 3 2 2 2 2 2 1 1 1 1 1 1 1 1 1 1 1 1 1 1 1 1 1 1
4 4 4 4 4 4 4 3 3 3 3 3 3 3 3 3 3 3 3 3 3 3 3 3 3 3 3 3 3 3 3 3 3 3 3 3 3 3 3 3 3 3 3 3 2 2 2 2 2 2 1 1 1 1 1 1 1 1 1 1 1 1 1 1 1 1 1 1 1
4 4 4 4 4 4 4 3 3 3 3 3 3 3 3 3 3 3 3 3 3 3 3 3 3 2 2 2 3 3 3 3 3 3 3 3 3 3 3 2 2 2 2 2 2 2 2 2 1 1 1 1 1 1 1 1 1 1 1 1 1 1 0 0 0 0 0 0 0
4 4 4 4 4 4 3 3 3 3 3 3 3 3 3 3 3 3 3 3 3 3 2 2 2 2 2 2 2 2 2 2 2 2 2 2 2 2 2 2 2 2 2 2 2 2 1 1 1 1 1 1 1 1 1 1 1 0 0 0 0 0 0 0 0 -0 -0 -0 -0
4 4 4 4 4 4 3 3 3 3 3 3 3 3 3 3 3 3 2 2 2 2 2 2 2 2 2 2 2 2 2 2 2 2 2 2 2 2 2 2 2 2 2 2 1 1 1 1 1 1 1 1 1 0 0 0 0 0 0 0 0 0 0 0 0 0 0 0 0
4 4 4 4 4 4 3 3 3 3 3 3 3 3 3 3 3 2 2 2 2 2 2 2 2 2 2 2 2 2 2 2 2 2 2 2 2 2 2 2 2 2 2 1 1 1 1 0 0 0 0 0 0 0 0 0 0 0 0 0 0 1 1 1 1 1 1 1 1
4 4 4 4 4 4 3 3 3 3 3 3 3 3 3 2 2 2 2 2 2 2 2 2 2 2 2 2 2 2 2 2 2 2 2 2 2 2 2 2 2 2 2 1 1 1 1 0 0 0 0 0 0 1 1 1 1 1 1 1 1 1 1 1 1 1 1 1 1
4 4 4 4 4 4 3 3 3 3 3 3 3 3 2 2 2 2 2 2 2 2 2 2 2 2 2 2 2 2 2 2 2 2 2 2 2 2 2 2 2 2 2 1 1 1 1 1 1 1 1 1 1 1 1 1 1 1 1 1 1 1 1 2 2 2 2 1 1
4 4 4 4 4 4 3 3 3 3 3 3 3 3 2 2 2 2 2 2 2 2 2 2 2 2 2 2 2 2 2 2 2 2 2 2 2 2 2 2 2 2 2 2 1 1 1 1 1 1 1 1 1 1 1 1 1 1 1 1 1 1 1 2 2 2 2 2 1
4 4 4 4 4 4 3 3 3 3 3 3 3 3 2 2 2 2 2 2 2 2 2 2 2 2 2 2 2 2 2 2 2 2 2 2 2 2 2 2 2 2 2 2 2 2 1 1 1 1 1 1 1 1 1 1 1 1 1 1 1 1 1 2 2 2 2 2 1
4 4 4 4 4 4 4 3 3 3 3 3 3 3 2 2 2 2 2 2 2 2 2 2 2 2 2 2 2 2 2 2 2 2 2 2 2 2 2 2 2 2 2 2 2 2 1 1 1 1 1 1 1 1 1 1 1 1 1 1 1 1 1 1 2 2 2 2 2
4 4 4 4 4 4 4 3 3 3 3 3 3 3 3 2 2 2 2 2 2 2 2 2 2 2 2 2 2 2 2 2 2 2 2 2 2 2 2 2 2 2 2 2 2 1 1 1 1 1 1 1 1 1 1 1 1 1 1 1 1 1 1 1 1 1 2 2 2
4 4 4 4 4 4 3 3 3 3 3 3 3 3 3 3 2 2 2 2 2 2 2 2 2 2 2 2 2 2 2 2 2 2 2 2 2 2 2 2 2 2 2 2 1 1 1 1 1 1 1 1 1 1 1 1 1 0 0 0 0 0 0 1 1 1 1 1 1
4 4 4 4 4 3 3 3 3 3 3 3 3 3 3 3 2 2 2 2 2 2 2 2 2 2 2 2 2 2 2 2 2 2 2 2 2 2 2 2 2 2 2 2 2 2 2 1 1 1 1 1 1 1 1 1 0 0 0 0 0 0 0 0 0 0 0 0 1
Height
752 751 749 748 747 745 744 742 741 739 738 737 735 734 733 732 730 729 728 727 725 724 723 721 720 719 718 717 716 715 714 713 712 712 711 710 709 709 708 707 707 706 705 705 704 704 703 703 702 702 701 700 700 700 699 699 699 699 699 698 698 697 697 697 697 697 698 699 699
751 750 749 748 746 745 743 742 740 739 737 736 735 733 732 731 729 728 727 726 725 724 722 721 719 719 718 717 716 715 714 713 712 711 710 709 709 708 707 706 706 705 704 704 703 703 702 701 701 700 699 699 699 699 698 698 698 698 697 696 696 696 695 696 696 697 697 698 699
751 749 748 747 745 744 743 741 739 738 737 735 734 733 731 730 729 728 726 725 724 723 722 720 719 718 717 716 715 714 713 712 711 710 709 709 708 707 706 705 705 704 704 703 702 701 701 700 699 699 698 698 698 697 697 697 696 696 695 694 694 694 694 695 695 696 697 697 698
750 749 748 746 745 744 742 740 739 737 736 734 733 732 730 729 728 727 726 724 724 723 721 720 719 717 716 715 714 713 712 711 710 709 709 708 707 706 705 704 704 703 702 701 701 700 699 699 699 698 697 697 696 696 696 695 695 695 694 692 693 693 694 695 695 696 696 697 698
750 749 748 746 745 743 742 740 739 737 735 734 733 731 730 729 727 726 725 724 723 722 721 720 719 717 716 714 713 712 711 710 709 708 707 706 706 705 704 703 703 702 701 700 700 699 699 698 697 697 696 696 696 695 695 695 695 694 693 692 692 693 694 695 695 696 697 698 698
750 749 747 746 744 743 741 739 738 736 735 734 732 730 729 728 726 725 724 723 722 721 720 719 718 717 715 714 713 712 710 709 708 707 706 705 705 704 703 702 702 701 700 700 699 699 698 697 697 696 696 695 695 695 695 695 695 694 692 692 693 694 694 695 696 697 698 698 699
751 749 747 745 744 742 741 739 738 736 734 733 731 730 728 726 725 724 723 722 721 720 719 718 717 716 715 714 713 711 710 709 708 707 706 705 704 703 702 701 701 700 699 699 698 698 697 697 696 695 695 695 695 695 695 695 694 693 692 692 693 694 696 697 698 698 698 698 699
751 749 748 746 744 742 740 739 737 735 734 732 731 729 727 725 724 723 722 721 720 719 718 717 716 716 715 714 713 711 710 709 708 707 705 704 703 702 702 701 700 699 699 698 698 697 697 696 696 695 695 695 695 695 695 694 693 692 691 692 695 696 697 698 699 699 699 699 699
751 749 748 746 744 742 740 739 737 735 734 732 730 729 727 724 723 721 720 720 719 718 717 717 716 715 714 713 712 711 710 709 708 707 705 704 703 702 701 700 700 699 699 698 698 697 697 696 696 696 695 695 695 695 695 694 694 692 691 693 695 697 698 698 699 699 699 699 699
752 750 748 746 744 743 741 739 737 735 734 732 730 728 726 724 722 721 720 719 718 718 717 716 715 715 714 713 712 711 710 709 708 707 705 704 703 702 701 700 699 699 699 698 698 698 697 697 696 696 696 695 695 695 695 695 694 693 693 694 695 696 697 698 699 699 699 699 699
753 751 749 747 745 743 741 739 737 735 734 732 730 728 726 724 722 721 719 719 718 717 716 716 715 714 714 713 712 711 710 709 708 707 706 704 703 702 701 700 700 699 699 699 699 699 698 698 697 696 696 695 695 695 695 696 695 695 695 695 695 696 697 698 699 699 699 699 700
753 751 749 748 746 744 741 739 737 735 734 732 730 728 726 724 723 721 720 719 718 717 716 716 715 714 714 713 712 711 710 709 709 707 706 704 704 703 702 701 701 701 700 700 699 699 698 698 697 697 696 696 696 696 696 696 696 696 696 696 696 697 698 699 699 699 700 700 700
754 752 750 748 746 744 742 740 738 736 734 732 730 729 727 726 724 722 721 719 719 718 717 716 716 715 714 713 712 711 711 710 709 707 706 705 704 704 703 703 702 702 701 700 700 699 699 698 698 697 697 697 697 697 697 697 697 696 696 697 697 698 699 699 700 700 700 700 700
755 753 751 749 747 745 743 741 739 737 735 733 732 730 728 727 725 723 722 721 720 719 718 717 716 715 715 714 713 713 712 710 709 708 707 706 705 705 704 704 703 703 702 701 701 700 700 699 698 698 698 698 698 698 698 697 697 697 698 698 698 699 700 700 701 701 701 701 701
755 754 752 750 748 746 744 742 740 739 737 735 733 731 730 728 726 725 723 722 721 720 719 718 717 716 716 715 714 714 712 711 710 709 708 707 706 705 705 704 704 703 703 702 702 701 700 699 699 699 699 699 699 699 698 698 699 699 699 699 700 701 701 702 702 702 702 702 702
756 754 753 751 749 747 745 743 742 740 738 736 735 733 731 729 728 726 725 724 723 722 721 720 719 718 717 716 715 714 713 712 711 709 709 708 707 706 705 705 704 704 704 703 702 701 701 700 700 700 700 700 700 700 700 700 700 700 701 701 702 703 703 704 704 704 704 704 704
757 755 754 752 750 749 747 745 743 741 740 738 736 734 733 731 729 728 727 725 724 724 722 721 720 719 719 717 716 715 714 713 712 711 710 709 708 707 706 706 705 705 704 704 703 703 702 702 702 702 702 701 701 701 701 702 702 703 703 704 704 704 705 705 705 705 705 705 705
758 757 755 753 752 750 748 746 744 743 742 740 738 736 735 733 731 730 729 727 726 725 724 723 722 721 720 719 718 717 716 715 714 713 712 711 710 709 708 708 707 707 706 706 705 705 705 705 704 704 704 703 703 704 704 704 704 705 705 706 706 706 707 707 707 707 707 707 708
759 758 756 754 753 751 749 748 746 745 743 742 740 738 737 735 734 732 730 729 728 727 726 725 724 723 722 721 720 719 718 717 716 715 714 714 713 711 711 710 709 709 709 708 708 708 708 707 707 706 705 705 705 706 706 706 707 707 708 708 708 709 709 709 709 709 709 709 709
761 759 758 756 755 753 751 749 748 746 745 744 742 740 739 737 735 734 733 732 730 729 728 727 726 725 724 724 723 722 721 720 719 718 717 716 714 714 713 713 712 711 711 711 711 711 710 710 709 709 708 708 708 709 709 709 709 710 710 711 711 711 711 711 711 711 711 712 712
763 761 760 758 756 755 753 751 750 748 747 745 744 742 741 739 738 736 735 734 733 731 730 729 728 728 727 726 725 724 723 722 721 720 719 718 717 716 716 715 714 714 714 714 714 714 713 713 712 711 711 711 711 711 712 712 712 713 713 713 714 714 714 714 714 714 714 714 715
764 763 761 760 758 757 755 753 752 750 748 747 745 744 743 741 740 739 737 736 734 733 732 731 730 730 729 729 728 727 725 724 723 722 721 720 720 719 718 718 717 717 717 717 717 716 716 715 715 714 714 714 714 714 715 715 715 715 716 716 717 717 717 717 717 717 717 718 718
766 764 763 762 760 758 757 755 753 752 750 749 747 746 744 743 742 741 739 738 737 735 735 734 733 732 731 731 729 729 728 726 726 725 724 723 722 722 721 720 720 720 720 720 720 719 719 718 717 717 717 717 717 718 718 718 718 718 718 719 719 719 720 720 720 720 720 720 720
767 766 765 763 762 760 758 757 755 753 752 751 749 748 747 745 744 743 741 740 739 738 737 737 736 735 734 733 732 731 729 729 728 727 727 726 725 724 724 723 723 723 724 724 723 722 721 720 720 720 720 720 720 720 720 720 720 721 721 721 721 722 722 723 723 723 723 723 723
769 767 766 765 763 762 760 758 757 755 754 753 752 750 749 748 746 745 744 743 742 741 740 739 738 737 736 735 734 733 732 731 731 730 729 729 728 727 726 726 726 727 727 727 726 725 724 724 723 723 723 723 723 723 723 723 723 723 723 724 724 724 724 724 724 725 725 725 726
770 769 768 766 765 763 762 760 759 758 756 755 754 752 751 750 749 747 746 745 744 744 743 742 741 740 739 738 737 736 735 734 734 733 732 732 731 730 730 730 730 730 730 730 729 728 727 727 726 725 725 725 725 725 725 725 726 726 726 726 726 726 727 727 727 727 727 728 728
771 770 769 768 766 765 764 762 761 759 758 757 756 755 754 752 751 750 749 748 747 746 745 744 744 743 742 741 740 739 738 738 737 736 736 735 734 734 733 733 733 734 734 733 732 731 730 730 729 729 728 728 728 728 728 729 729 729 729 729 729 729 729 730 730 730 730 731 731
773 771 770 769 768 767 765 764 763 761 760 759 758 757 756 754 753 752 751 750 749 749 748 747 747 746 744 744 743 742 742 741 740 740 739 738 738 737 737 737 737 737 737 736 735 734 734 733 732 732 731 730 730 731 731 731 732 732 732 732 732 733 733 733 734 734 734 734 734
774 773 772 771 769 769 767 766 765 764 763 762 761 759 758 756 755 754 754 753 752 751 750 750 749 748 747 746 746 745 744 744 744 743 742 741 741 740 740 740 740 740 740 739 738 737 737 736 735 735 734 733 733 734 734 734 734 735 735 735 736 736 736 737 737 737 737 737 736
776 774 774 772 771 770 769 768 767 766 765 764 763 761 759 758 758 757 756 755 755 754 754 753 752 751 750 749 749 748 747 747 747 746 745 744 744 744 744 744 743 743 743 742 741 740 740 739 739 738 737 737 736 737 737 737 737 738 738 739 739 739 739 739 739 739 739 739 739
777 776 775 774 773 772 771 770 769 768 767 766 764 763 761 760 760 759 759 759 758 758 757 755 754 753 753 752 751 751 750 750 749 749 748 748 747 747 747 747 746 746 746 745 744 744 743 743 742 742 741 740 740 740 740 740 740 741 741 742 742 742 742 742 742 742 741 741 741
779 778 777 776 775 774 773 772 771 770 769 768 766 765 764 763 763 763 762 761 760 759 758 757 756 756 755 755 754 754 753 753 752 752 751 751 751 750 750 749 749 749 749 749 748 747 747 746 745 745 744 744 743 743 743 743 743 743 744 744 744 744 744 744 744 744 744 743 743
781 779 779 778 777 776 775 774 773 772 771 769 768 767 767 766 765 765 764 763 762 761 760 759 759 759 758 758 757 757 756 756 755 755 754 754 754 753 753 752 753 753 753 752 751 750 750 749 749 748 748 747 746 746 746 745 745 746 746 746 746 746 746 746 746 746 746 745 745
782 781 780 779 779 778 777 776 775 774 772 771 770 769 769 768 768 767 766 766 765 764 763 763 762 762 762 761 760 760 759 759 759 758 757 757 756 755 755 755 756 756 756 755 754 754 753 753 752 752 751 750 749 749 748 748 748 748 748 748 749 749 749 749 748 748 748 748 747
784 783 782 781 781 780 779 778 777 775 774 773 773 772 771 770 770 770 769 769 768 767 766 766 765 764 764 764 763 762 762 761 761 760 760 759 759 758 758 758 759 759 759 758 758 757 756 756 755 754 753 752 751 751 751 750 750 750 750 750 750 750 750 750 750 750 750 749 749
786 785 784 783 782 782 781 779 779 777 776 775 775 774 774 773 773 773 772 771 770 769 769 768 768 767 766 766 765 765 764 764 764 763 763 762 761 760 760 761 761 761 761 761 760 760 759 759 758 757 756 754 754 754 753 753 753 753 752 752 752 752 752 752 752 752 752 751 751
788 787 786 785 784 783 783 781 780 779 779 778 778 777 777 776 776 775 774 773 772 771 771 770 770 769 769 768 768 768 767 767 766 765 765 764 764 763 763 763 764 764 764 763 763 762 761 761 760 759 758 756 756 756 755 755 754 754 754 754 754 754 754 754 754 754 754 754 753
789 789 788 787 786 785 784 783 782 782 781 781 780 780 779 779 778 778 777 776 774 774 774 773 772 772 772 771 771 770 770 769 768 768 767 767 766 766 766 766 766 766 766 765 765 764 764 763 762 761 760 759 758 758 757 757 756 756 756 756 756 756 756 756 756 756 756 756 756
791 790 789 789 788 787 786 785 784 784 784 783 783 782 781 781 780 780 779 778 777 776 776 775 775 775 775 774 773 772 772 771 770 770 769 769 769 769 768 768 768 769 768 768 767 766 766 765 764 764 762 761 760 760 759 759 758 758 758 758 758 758 758 758 758 758 758 758 758
793 792 791 790 790 789 788 787 787 787 786 785 785 784 784 783 783 783 782 781 780 779 778 778 778 778 777 776 775 774 774 773 773 773 772 772 772 771 771 770 771 771 771 770 770 769 768 768 767 766 764 763 762 762 761 761 760 760 760 760 760 760 760 760 760 760 760 760 760
794 794 793 792 792 791 790 790 789 789 788 787 787 787 786 786 785 784 784 783 782 781 781 780 780 779 779 778 777 776 776 775 775 775 775 775 774 774 773 773 773 773 773 773 772 772 771 770 769 768 767 765 765 764 764 763 762 762 762 763 763 762 762 762 762 762 762 761 761
Wind_Speed
25 25 24 23 22 21 21 22 22 22 23 23 23 24 23 22 22 23 24 24 23 24 24 25 24 24 23 21 21 20 20 19 18 18 18 19 20 21 21 20 20 19 19 18 17 16 15 14 14 14 14 14 14 13 14 14 14 14 13 12 12 12 12 13 14 15 15 16 16
26 26 25 24 23 23 24 24 24 24 24 25 24 24 24 23 23 23 24 24 24 24 25 25 25 24 23 22 20 20 20 19 18 18 19 20 20 21 20 20 19 18 18 18 17 15 14 12 11 11 11 12 12 13 14 14 14 13 12 11 11 11 11 12 13 14 14 15 16
27 27 27 26 26 26 26 26 26 26 26 26 25 24 23 23 23 23 24 24 24 25 25 25 25 25 24 22 21 20 20 19 19 19 19 19 20 20 19 19 18 17 17 17 16 15 13 10 9 10 10 11 12 14 15 14 12 12 12 10 9 10 11 12 12 13 14 14 14
28 28 28 28 28 28 27 27 28 28 27 26 25 24 23 23 23 23 24 24 24 24 24 25 25 25 25 24 23 22 21 20 20 19 19 19 19 18 17 16 16 16 15 15 14 12 11 9 9 10 10 11 13 14 14 12 11 12 11 8 8 8 8 9 10 10 10 10 10
29 29 28 28 28 28 27 27 27 27 27 26 26 25 24 24 23 24 24 24 24 23 23 23 24 24 24 24 24 24 23 23 22 21 20 20 18 17 15 14 14 14 13 11 10 10 9 9 9 9 10 11 13 12 11 11 12 12 9 7 6 5 5 6 6 5 6 6 7
29 29 28 27 27 26 26 25 26 26 25 25 26 26 26 25 25 24 24 24 23 22 21 21 22 22 22 22 23 24 24 24 23 22 21 21 19 17 15 14 12 11 10 9 9 9 9 8 8 9 9 10 10 9 10 12 13 11 8 5 3 4 5 5 3 3 4 5 6
28 28 27 27 26 25 25 25 25 25 25 25 26 26 26 26 26 25 24 23 22 21 20 20 20 20 20 20 21 21 22 22 22 22 21 20 18 16 15 13 11 10 9 8 8 8 7 7 7 8 8 8 8 9 11 13 13 10 6 4 7 8 6 4 3 3 4 4 5
28 27 27 26 25 25 25 25 24 24 25 25 25 26 26 26 26 25 24 22 21 19 18 18 18 18 18 18 18 18 19 20 21 21 20 19 18 16 14 11 9 7 6 6 6 6 5 5 6 6 6 6 7 9 11 12 11 8 6 10 10 8 6 5 5 4 3 3 5
28 27 26 26 25 25 25 25 24 24 24 24 25 25 26 26 26 25 23 21 19 17 16 16 17 17 17 17 17 16 16 17 18 20 20 19 17 15 12 8 6 4 4 4 3 3 3 3 3 4 5 5 7 9 10 10 8 8 11 12 11 10 9 7 6 4 3 4 5
28 27 26 26 25 25 25 24 24 24 24 25 25 25 25 25 25 24 22 20 18 16 15 14 15 16 16 16 15 15 15 16 18 19 18 15 13 11 8 5 3 2 2 2 2 2 2 2 2 4 6 7 7 7 7 6 7 9 12 14 14 13 11 8 6 6 6 6 6
27 27 26 25 25 25 25 25 25 25 25 26 26 26 26 26 26 25 22 20 17 15 14 13 13 14 15 15 14 14 15 17 18 18 15 12 9 7 5 3 2 2 3 3 3 3 2 2 4 7 7 7 6 5 5 6 8 10 12 14 14 13 12 10 9 8 8 7 7
27 26 25 24 24 25 25 25 26 26 27 27 27 27 26 26 26 25 23 20 17 15 13 12 12 13 13 13 13 14 16 17 18 16 13 11 8 7 6 5 6 5 5 4 2 1 1 3 6 6 6 5 3 4 7 9 11 13 14 14 13 13 13 12 11 10 9 8 8
27 26 25 25 25 25 26 26 26 27 28 28 28 28 27 27 26 25 24 21 18 15 13 11 11 11 12 12 13 14 15 17 16 14 12 11 8 8 8 9 9 7 5 2 0 2 4 6 5 2 1 4 8 11 12 13 14 15 15 14 14 14 14 14 13 11 10 9 9
26 26 25 25 25 26 27 27 27 27 28 28 28 28 28 27 27 26 25 23 19 16 14 12 11 11 11 12 13 14 15 15 14 12 11 9 8 8 8 9 8 6 4 4 4 5 5 3 4 8 12 15 16 16 16 16 16 16 16 16 16 15 15 14 13 12 12 12 12
26 26 26 25 26 26 27 27 26 27 28 28 28 28 27 27 27 27 26 24 20 18 16 14 13 12 12 12 13 13 14 14 12 11 10 9 8 8 9 9 7 5 4 4 3 5 8 13 16 18 19 20 19 19 18 18 17 17 17 17 16 16 15 14 13 13 14 14 15
26 26 26 26 26 26 26 26 26 27 27 28 28 27 27 27 28 27 27 25 23 21 19 18 16 15 15 14 14 15 15 14 14 14 14 14 13 13 13 12 11 10 11 13 16 18 20 20 20 19 20 20 21 20 20 19 19 18 18 17 17 16 15 15 14 15 15 16 17
26 26 26 25 25 26 26 26 26 27 27 27 27 27 27 27 28 28 27 27 25 24 23 22 21 20 20 19 18 18 17 17 17 19 20 20 20 20 20 20 20 20 21 22 23 22 22 21 21 21 21 22 22 22 21 21 20 20 19 18 18 17 17 16 16 17 17 18 18
26 26 26 25 25 25 25 26 26 26 27 27 27 27 27 28 28 28 28 28 27 27 26 26 25 25 24 23 21 20 20 20 22 23 24 24 24 25 25 25 25 24 24 23 23 22 22 22 22 22 23 23 23 22 22 22 21 21 20 20 19 19 19 19 19 19 19 20 20
26 26 26 25 25 25 25 26 26 26 26 27 27 27 27 28 28 28 28 28 28 27 27 27 27 26 25 25 24 23 23 24 25 25 25 25 25 26 26 26 25 25 24 24 23 23 23 23 23 24 24 24 24 24 24 24 24 23 23 23 23 23 23 23 22 22 22 23 23
26 26 25 25 25 25 25 26 26 26 26 27 27 28 28 28 29 29 29 29 28 28 28 28 28 28 27 26 26 26 25 26 26 26 26 26 26 26 25 25 24 24 24 24 24 24 24 25 25 26 26 26 27 27 27 27 27 27 28 28 28 28 28 27 27 27 27 27 27
26 26 26 25 25 25 25 26 26 26 27 27 28 28 28 29 29 29 29 28 28 28 29 29 29 29 28 28 27 27 27 27 27 27 27 26 26 26 25 24 24 24 25 25 25 25 26 26 27 28 28 29 29 30 30 30 31 31 32 32 32 32 32 32 32 32 32 32 32
26 26 26 26 26 25 25 26 26 27 27 28 28 28 28 29 29 29 29 29 29 30 30 30 30 29 29 28 28 28 28 28 28 28 28 27 27 27 26 25 25 25 26 26 26 26 26 27 28 29 30 30 31 31 31 31 31 32 33 33 33 33 33 33 34 34 34 34 34
26 26 26 26 26 26 26 27 27 28 28 28 28 28 29 29 29 30 30 31 31 31 31 31 31 30 30 29 29 29 29 29 29 29 29 29 28 28 28 27 27 27 26 25 25 26 27 28 29 30 30 30 30 29 29 29 29 30 31 31 31 31 31 31 32 32 32 33 33
26 26 26 26 26 26 27 27 28 28 29 29 29 29 29 29 30 30 31 31 32 32 32 31 31 31 31 31 31 31 31 31 30 30 29 29 29 29 29 29 28 27 26 24 24 25 26 28 29 29 29 29 29 28 28 28 28 29 29 29 29 29 28 28 29 29 29 29 29
26 26 26 26 26 27 27 28 28 28 28 29 29 29 29 30 30 31 31 31 32 32 32 32 32 32 32 32 32 31 32 32 31 31 30 30 30 30 29 29 28 27 26 24 23 24 25 26 27 28 28 28 28 28 28 28 28 28 28 28 28 28 28 28 29 29 28 28 27
25 26 26 26 27 27 27 28 28 28 28 28 29 29 30 30 30 31 31 31 31 30 31 31 31 31 32 32 32 32 32 32 32 31 31 31 31 30 30 29 28 27 26 25 24 25 25 26 27 27 28 28 28 29 29 29 29 29 29 29 29 29 29 30 30 30 30 29 28
25 25 25 26 27 27 27 27 27 28 28 28 29 29 30 30 30 31 31 30 29 29 29 30 30 30 30 31 32 32 31 31 32 32 32 31 31 31 30 29 29 28 26 25 25 26 26 26 27 28 29 29 29 29 29 29 29 30 30 30 30 30 30 30 30 30 30 30 29
24 24 25 26 26 27 27 27 27 27 27 27 28 28 29 29 30 30 30 29 29 29 29 28 28 28 29 30 31 32 31 31 32 32 32 32 32 31 30 30 29 28 27 26 26 26 26 27 27 28 29 30 30 30 30 30 31 31 31 30 30 30 30 30 29 29 29 29 29
23 24 25 25 26 26 27 27 27 27 27 27 27 27 28 29 29 29 29 29 29 29 28 27 28 28 29 30 30 31 31 31 31 31 32 32 32 31 31 30 30 29 28 27 27 27 27 27 28 29 30 32 32 32 31 31 31 31 31 31 30 30 29 28 28 27 27 27 27
23 23 24 24 25 25 26 26 26 26 25 26 26 27 28 29 29 29 29 29 28 28 27 27 28 29 29 30 30 31 31 31 31 31 31 31 31 31 31 31 31 30 29 28 28 28 28 29 29 30 32 33 33 33 33 33 33 32 32 31 30 30 28 27 26 25 25 24 24
22 22 23 23 24 24 24 25 25 25 25 26 26 27 28 28 28 28 27 27 27 27 28 29 29 30 30 30 30 31 31 30 30 31 31 31 30 31 31 31 31 30 29 29 29 29 29 30 30 32 33 35 35 35 35 34 34 33 31 30 29 28 27 26 25 24 24 23 23
21 22 22 23 23 23 24 24 24 25 25 26 26 27 27 27 27 26 26 26 27 28 28 29 30 30 30 31 31 31 31 31 30 30 30 30 30 30 30 31 31 30 29 29 29 29 30 30 31 32 34 35 35 34 34 33 32 31 30 29 28 27 26 25 25 24 24 24 23
21 22 22 22 23 23 23 23 24 24 25 26 27 27 26 26 26 26 26 27 27 28 29 30 30 30 29 29 29 29 30 30 30 30 30 30 30 29 30 30 29 28 28 28 29 29 29 30 30 31 31 33 33 32 32 31 31 30 29 29 28 27 26 25 24 24 24 24 24
21 22 22 22 22 22 23 23 24 25 25 26 26 26 26 26 26 26 26 27 27 28 29 29 29 29 29 29 28 28 28 28 29 30 30 30 30 30 30 30 28 27 27 27 27 27 27 27 27 28 29 30 31 31 31 30 30 30 30 30 29 29 28 27 26 25 24 24 23
22 22 22 22 22 23 23 24 25 25 26 26 26 26 27 27 27 26 26 26 27 28 29 29 29 29 29 29 29 29 29 28 29 29 30 30 31 31 31 30 28 27 26 26 26 25 25 25 25 25 26 28 29 30 30 30 30 30 30 30 30 30 30 30 29 28 27 26 25
22 22 22 23 23 23 24 24 25 26 26 26 26 26 26 27 26 26 26 26 28 28 29 29 29 29 29 29 30 30 29 29 30 30 30 30 31 31 31 30 28 26 25 24 24 24 24 23 23 24 25 27 27 28 28 28 28 29 29 29 29 29 29 29 29 29 29 28 27
22 22 22 23 23 23 24 24 25 26 26 26 26 26 26 26 26 25 25 26 28 28 28 29 29 29 29 29 29 29 30 30 30 30 31 31 31 31 30 29 28 26 24 24 23 23 23 23 23 24 25 26 26 26 26 26 27 28 28 28 28 28 27 27 27 28 28 28 28
22 22 22 22 23 23 23 24 24 25 25 25 25 25 25 25 25 25 25 26 27 27 28 29 29 29 29 29 30 30 30 30 31 31 31 31 31 30 30 29 28 26 24 24 23 23 23 23 22 23 25 26 26 26 26 26 26 27 28 28 28 28 27 27 27 27 27 27 28
21 22 22 22 22 22 23 23 24 24 24 24 24 24 24 25 24 24 24 25 26 27 27 28 28 28 28 29 30 31 31 32 31 31 31 30 30 30 30 30 28 26 25 25 24 24 23 23 22 23 24 26 26 26 25 26 26 26 27 27 27 27 27 27 26 26 27 27 27
21 21 22 22 22 22 23 23 23 23 23 23 23 23 23 23 23 23 23 24 25 26 26 27 26 26 27 28 30 31 31 32 32 32 31 30 30 30 30 30 29 28 27 26 25 24 23 23 22 23 24 25 25 25 25 25 25 25 25 25 24 24 25 25 26 26 26 26 26
21 21 22 22 22 23 23 23 23 23 23 23 23 22 22 22 22 22 22 23 24 24 25 25 25 25 26 27 28 29 30 31 31 31 31 31 31 30 31 31 30 28 27 25 24 23 23 23 22 23 24 25 24 24 24 25 24 24 24 23 22 22 22 23 24 24 25 26 26
Wind_Direction
336 335 334 332 329 327 326 325 324 323 321 318 315 312 311 310 310 310 311 311 310 310 310 311 311 311 312 314 316 317 317 316 314 309 304 301 301 301 300 298 295 292 289 288 288 287 284 279 275 274 274 274 271 265 259 257 258 260 261 263 266 270 274 276 274 265 252 240 237
336 336 336 333 332 331 331 330 329 328 327 324 320 316 313 310 308 308 309 310 310 310 310 309 309 309 309 310 310 310 310 310 308 305 301 299 298 297 297 295 292 289 287 285 284 284 283 282 279 275 272 270 268 263 259 258 256 253 252 256 265 275 280 277 268 257 246 238 237
337 338 337 336 335 333 332 331 330 330 329 327 324 320 316 311 309 307 307 309 311 312 311 310 310 309 308 307 306 304 304 303 303 301 300 300 299 298 296 294 291 287 285 284 284 284 287 289 282 273 267 265 262 260 258 256 248 239 238 249 269 283 281 268 252 240 232 230 231
341 340 339 338 336 334 331 329 329 329 329 327 325 322 318 314 311 309 308 309 311 312 313 313 312 312 311 309 306 305 304 303 301 299 299 300 301 301 298 294 290 287 286 287 288 291 293 289 278 270 265 262 260 259 256 245 231 224 230 253 287 289 268 243 226 218 217 221 227
344 343 342 339 337 335 332 330 328 328 327 326 324 322 320 317 314 312 310 309 309 311 314 315 316 316 315 314 312 310 309 308 304 300 298 299 302 303 302 298 295 292 291 291 292 292 290 283 275 269 264 262 260 254 241 222 218 217 229 281 286 260 224 202 199 205 212 218 220
346 345 344 342 340 337 334 331 329 328 327 326 325 324 322 320 317 314 311 308 309 311 314 316 318 320 321 321 320 318 316 314 310 306 302 300 303 306 307 305 303 300 295 288 284 282 282 281 276 269 263 258 252 239 224 216 214 221 237 265 218 169 153 146 167 209 222 216 208
348 348 347 346 345 342 339 336 334 333 331 329 327 326 324 323 319 316 313 312 312 313 314 317 320 323 326 328 328 328 326 323 321 317 313 309 310 312 313 312 310 303 293 284 280 280 281 280 273 265 259 251 239 227 222 220 217 224 227 162 130 124 122 133 170 200 206 203 202
352 352 351 351 350 347 345 342 340 338 335 333 330 329 328 325 321 319 317 316 315 314 315 317 321 326 331 333 334 335 335 335 333 331 328 326 323 321 321 320 314 304 291 283 282 283 282 275 268 263 257 248 232 221 219 221 218 204 155 124 121 121 128 144 161 168 174 192 192
354 355 355 356 355 354 352 349 347 344 341 339 338 337 334 330 327 323 321 319 319 319 318 318 323 329 333 336 337 337 339 342 342 340 339 336 333 330 329 327 319 307 297 292 292 289 285 281 286 286 275 255 229 216 214 214 197 155 129 125 125 128 133 138 144 150 163 178 172
354 356 357 359 360 360 359 357 356 354 351 348 347 346 344 340 338 334 330 329 329 328 325 325 328 332 335 337 337 337 340 344 344 343 344 346 343 340 337 333 325 322 327 328 325 326 333 343 312 283 272 256 229 214 203 182 146 124 116 118 121 124 126 131 139 145 147 147 143
356 357 360 2 4 5 5 3 2 1 360 357 356 355 354 354 353 350 347 344 341 338 336 337 336 336 337 338 339 341 344 346 345 345 345 346 346 347 347 347 1 16 17 11 7 8 5 327 270 262 257 243 224 204 167 129 111 101 100 105 107 109 111 115 120 122 122 122 122
357 359 2 6 8 10 10 8 7 7 6 4 4 5 6 7 7 5 2 359 354 353 354 353 348 344 343 343 347 350 350 348 347 346 346 347 351 0 12 25 35 41 43 42 48 68 251 266 268 261 247 229 191 135 113 104 96 92 92 93 93 96 98 101 105 107 109 109 111
360 1 4 8 11 12 12 11 11 10 11 11 13 14 16 17 18 17 15 13 12 12 11 9 2 355 352 352 355 355 353 351 350 348 348 355 4 20 35 47 51 51 48 42 193 234 258 277 283 275 124 99 94 96 97 95 91 88 88 88 89 91 93 96 99 104 107 107 107
3 4 5 8 12 14 14 14 13 14 15 17 20 22 23 23 24 24 24 25 25 24 22 19 14 9 5 2 0 358 358 359 358 357 358 5 14 31 47 59 59 47 15 333 293 286 300 336 55 79 83 85 86 89 91 90 87 86 86 87 88 89 91 93 96 100 102 103 104
6 6 8 10 13 15 16 16 16 17 19 21 24 26 27 26 28 29 31 32 31 29 27 23 20 17 14 11 9 11 16 19 19 19 22 26 31 41 53 65 67 51 21 11 25 52 68 80 86 89 90 90 89 88 88 87 86 86 86 87 87 87 88 89 92 94 96 98 99
9 9 10 12 15 18 19 20 20 21 22 24 27 29 30 30 32 34 36 36 36 34 31 29 26 26 27 29 34 39 41 43 43 44 46 49 52 57 63 69 74 75 75 75 80 85 89 92 94 95 93 91 89 88 87 87 87 86 86 86 86 86 86 86 88 90 92 93 92
12 12 13 14 17 20 22 24 25 25 26 28 30 32 33 33 35 37 39 40 39 39 38 37 37 39 43 49 54 56 56 55 55 55 56 58 61 65 68 71 74 77 80 82 84 87 90 91 92 92 90 89 87 86 86 86 85 85 85 85 85 85 85 85 87 88 89 89 87
15 15 15 17 19 22 25 28 29 30 30 31 33 34 36 37 38 40 42 44 45 45 45 45 46 49 52 55 58 59 58 58 58 59 60 62 65 67 69 71 73 75 77 79 81 83 84 85 85 85 86 86 86 85 85 84 83 83 83 82 82 83 83 84 85 86 85 85 84
17 17 17 18 21 24 27 31 32 33 34 35 36 37 39 41 42 43 45 47 49 50 50 50 50 52 54 55 56 57 57 57 59 60 63 65 67 68 69 70 72 73 74 75 76 78 79 80 80 81 83 83 84 84 83 83 82 82 80 79 79 79 80 81 81 82 83 83 83
20 19 19 20 23 26 30 33 35 36 37 38 39 40 41 43 45 46 47 48 52 54 53 52 51 51 52 54 54 54 55 56 58 60 63 65 66 67 67 69 70 71 72 73 73 74 75 76 77 79 81 82 82 82 82 82 81 80 79 78 77 77 77 78 79 80 80 81 80
22 22 23 24 26 28 31 35 37 39 39 40 41 42 43 44 46 47 48 50 53 54 53 52 52 51 51 51 52 52 53 55 57 59 61 63 64 65 66 67 69 71 72 72 71 71 73 74 76 78 80 80 81 81 81 81 80 79 78 76 75 75 76 76 77 77 77 77 77
25 26 27 27 29 31 33 36 39 40 41 41 42 43 45 45 46 47 49 51 52 52 51 51 51 51 50 50 51 51 53 55 56 58 59 60 62 63 65 67 69 70 70 70 70 71 73 75 77 78 79 79 79 79 79 79 79 79 78 77 75 75 74 75 75 75 75 74 74
29 30 30 30 32 33 35 38 40 41 41 41 42 43 45 46 47 48 50 51 50 50 50 50 50 50 51 51 52 52 53 54 54 56 57 59 60 61 63 65 66 66 66 67 70 72 74 76 77 79 79 79 78 77 77 78 78 78 78 77 76 75 74 73 73 73 73 72 71
32 33 33 33 34 35 37 39 40 41 41 41 42 43 45 46 48 49 50 50 50 50 49 49 50 50 51 52 52 53 53 53 52 53 55 57 58 59 61 62 62 62 63 65 69 73 76 78 79 79 79 79 78 77 76 77 77 77 77 77 76 75 74 73 73 72 72 71 70
36 36 37 36 36 37 38 40 40 41 41 42 43 44 45 46 48 49 50 50 50 50 50 50 50 50 51 51 52 53 53 53 52 52 53 55 57 58 59 60 60 61 62 64 67 72 77 79 81 80 79 79 78 77 76 75 75 75 75 75 75 74 73 72 72 72 72 72 71
38 38 39 39 39 39 40 41 41 42 43 44 45 45 46 47 48 49 50 49 49 49 50 50 50 50 51 51 52 52 52 53 53 53 54 54 56 57 58 59 60 61 63 65 68 72 75 78 81 82 82 80 78 77 75 74 74 74 75 74 74 74 73 72 72 72 73 74 74
39 40 40 41 42 42 42 42 43 43 44 45 45 46 47 48 49 49 49 48 48 49 49 49 49 50 51 51 52 52 51 52 53 54 55 55 56 57 58 59 60 61 63 65 68 71 74 77 80 82 83 81 79 77 75 74 73 73 74 73 73 74 73 73 72 73 74 75 76
40 41 42 43 43 43 43 44 44 44 45 45 46 47 48 49 49 49 48 48 48 48 48 48 49 50 51 51 52 52 52 53 53 54 55 56 57 57 58 59 60 61 63 65 68 70 73 76 79 81 82 81 79 78 76 75 74 73 73 72 73 73 73 74 74 74 75 75 75
41 42 43 44 44 44 44 45 45 45 46 47 48 49 50 50 50 49 49 48 48 48 48 48 50 51 51 51 52 53 54 54 54 55 55 56 56 57 58 59 60 61 62 64 67 69 71 74 76 79 81 81 80 79 77 76 75 75 74 74 74 74 74 74 74 74 74 75 75
42 44 45 45 46 46 46 46 46 47 48 49 50 51 51 51 51 50 50 50 49 49 50 51 52 52 52 52 53 54 54 54 55 55 55 55 56 56 57 59 59 60 61 63 65 68 70 72 74 77 79 80 80 79 78 78 77 77 76 76 76 76 76 76 75 75 74 74 74
44 45 47 48 48 47 47 48 48 49 49 50 51 52 52 52 51 51 51 51 52 52 53 54 54 53 54 54 54 55 55 55 55 55 55 56 56 57 58 59 59 60 61 63 65 67 69 71 73 76 78 79 79 79 79 79 78 78 77 77 76 76 75 75 74 73 72 71 71
45 47 48 49 49 50 49 49 50 50 51 51 51 51 52 52 52 51 52 53 53 54 54 54 54 54 54 55 55 55 56 56 55 56 56 57 57 58 58 59 59 59 60 62 65 67 69 70 72 74 76 77 78 78 78 77 77 76 76 75 73 72 71 70 69 68 67 66 66
45 48 49 50 50 51 51 51 51 51 52 52 51 51 51 51 52 52 52 53 53 54 54 54 54 54 54 55 55 56 56 56 57 57 58 58 58 59 58 58 58 59 60 62 64 66 67 69 71 72 74 75 76 75 75 75 74 73 72 70 69 67 67 66 65 65 64 64 64
45 47 49 50 50 50 50 51 51 52 52 52 51 51 51 51 51 51 52 53 54 55 56 57 57 57 57 57 57 57 57 57 58 59 59 60 60 60 59 59 58 59 60 62 63 65 66 67 69 70 72 73 73 73 72 72 71 70 69 68 66 65 65 64 64 64 64 64 64
45 47 48 49 49 50 50 50 51 52 52 52 51 51 52 52 52 52 53 56 57 58 59 59 60 60 60 59 59 59 59 59 59 59 60 61 61 61 61 60 60 60 61 62 63 64 65 66 67 68 70 71 71 71 70 70 69 69 68 67 66 64 63 62 61 61 61 62 62
46 47 48 49 49 50 50 51 52 52 52 52 52 52 53 53 54 55 56 59 60 60 60 59 60 60 59 59 59 59 60 60 61 61 61 62 62 63 63 62 62 61 62 63 64 65 65 66 67 68 69 70 69 69 69 68 67 67 66 65 64 63 61 60 58 57 57 57 57
48 49 50 51 50 51 51 52 53 53 53 53 53 54 55 55 56 56 58 60 61 61 61 60 60 59 60 60 60 60 61 62 62 62 62 62 63 64 64 64 63 62 62 63 64 65 66 66 66 67 68 69 68 68 67 67 66 65 64 63 62 61 60 59 58 56 55 54 54
50 51 52 52 52 52 53 53 54 54 54 55 55 56 57 58 57 57 58 60 62 62 62 62 62 61 62 63 63 63 62 63 63 63 63 62 63 64 65 64 63 62 61 62 63 64 64 64 64 66 68 69 68 68 67 67 66 65 64 62 61 60 59 58 57 57 55 54 53
53 53 54 54 54 54 54 54 54 55 55 56 57 57 57 58 58 59 60 62 63 64 65 64 64 64 64 65 65 65 64 64 63 63 63 62 63 63 64 64 63 61 60 60 61 61 61 62 63 65 68 70 70 69 68 67 66 65 63 62 61 59 58 57 57 56 55 54 53
55 55 55 55 55 55 55 55 55 55 56 56 56 56 57 58 59 60 61 63 64 65 66 66 66 66 66 66 66 66 65 64 63 63 63 62 62 62 63 63 62 60 59 58 59 59 60 60 62 64 68 70 70 69 68 67 65 63 61 60 59 57 56 55 55 55 54 53 52
58 57 56 56 56 56 56 56 56 57 57 57 57 57 58 59 60 61 62 63 63 65 66 67 67 67 67 66 66 66 65 64 63 63 63 62 62 62 62 62 61 59 58 57 57 57 57 57 59 62 65 68 68 67 66 65 63 60 58 57 56 56 54 53 53 52 52 51 50